EW9058 Laiya PH current weather conditions

sailwx.info

Wind from 189 at 6 knots gusting 15

Air temperature 30.0° C
Dewpoint 22.2° C

Last reported at 2019-Mar-23 04:00 UTC.
Time now 2019-Mar-23 04:46 UTC

Location: N 13°40' E 121°24'.
View on Google Maps.

See reports from other nearby stations

  
Tides and Currents Weather Stations Pressure Air Temp Water Temp Dewpoint Dewpoint Depression Visibility Wind Speed Wind Dir Waves Ship Positions
date/time (UTC)wind fromknots sea level pressurealtimeterstation pressurevisibilityair tempwater tempwave heightnotes
2019-Mar-23 04:00 189 6 gusting 15 30.0
2019-Mar-23 03:30 189 6 gusting 15 29.4
2019-Mar-23 03:00 189 6 gusting 13 29.4
2019-Mar-23 02:30 190 5 gusting 13 28.9
2019-Mar-23 02:00 190 6 gusting 13 28.3
2019-Mar-23 01:30 190 5 gusting 12 27.8
2019-Mar-23 01:00 190 5 gusting 10 27.8
2019-Mar-23 00:30 189 3 gusting 9 27.2
2019-Mar-23 00:00 189 3 gusting 8 26.7
2019-Mar-22 23:30 189 1 gusting 6 25.6
2019-Mar-22 23:00 190 23.3
2019-Mar-22 22:30 190 22.2
2019-Mar-22 22:00 22.2
2019-Mar-22 21:30 22.8
2019-Mar-22 21:00 190 23.3
2019-Mar-22 20:30 190 23.9
2019-Mar-22 20:00 190 23.9
2019-Mar-22 19:30 190 23.9
2019-Mar-22 19:00 190 23.9
2019-Mar-22 18:30 190 24.4
2019-Mar-22 18:00 190 0 gusting 4 24.4
2019-Mar-22 17:30 190 0 gusting 3 25.0
2019-Mar-22 17:00 190 25.0
2019-Mar-22 16:30 190 0 gusting 6 25.6
2019-Mar-22 16:00 189 1 gusting 6 25.6
2019-Mar-22 15:30 190 1 gusting 5 25.6
2019-Mar-22 15:00 189 1 gusting 6 25.6
2019-Mar-22 14:30 189 1 gusting 6 26.1
2019-Mar-22 14:00 189 1 gusting 6 26.1
2019-Mar-22 13:30 189 0 gusting 7 26.1
2019-Mar-22 13:00 189 2 gusting 8 26.7
2019-Mar-22 12:30 189 3 gusting 10 26.7
2019-Mar-22 12:00 189 3 gusting 10 27.2
2019-Mar-22 11:30 190 2 gusting 7 26.7
2019-Mar-22 11:00 190 26.7
2019-Mar-22 10:30 190 27.2
2019-Mar-22 10:00 190 28.3
2019-Mar-22 09:30 190 0 gusting 4 28.9
2019-Mar-22 09:00 190 1 gusting 4 28.9
2019-Mar-22 08:30 190 0 gusting 5 29.4
2019-Mar-22 08:00 189 1 gusting 5 29.4
2019-Mar-22 07:30 189 2 gusting 5 29.4
2019-Mar-22 07:00 189 2 gusting 6 29.4
2019-Mar-22 06:30 189 2 gusting 6 29.4
2019-Mar-22 06:00 189 2 gusting 6 29.4
2019-Mar-22 05:30 189 2 gusting 7 29.4
2019-Mar-22 05:00 190 2 gusting 7 29.4
2019-Mar-22 04:30 189 2 gusting 6 29.4
2019-Mar-22 04:00 189 2 gusting 7 29.4
2019-Mar-22 03:30 189 3 gusting 8 28.9
2019-Mar-22 03:00 190 4 gusting 8 28.9
2019-Mar-22 02:30 189 3 gusting 9 28.9
2019-Mar-22 02:00 189 3 gusting 9 28.3
2019-Mar-22 01:30 189 2 gusting 8 27.2
2019-Mar-22 01:00 189 3 gusting 7 27.2
2019-Mar-22 00:30 189 2 gusting 7 26.7
2019-Mar-22 00:00 190 2 gusting 6 26.1
2019-Mar-21 23:30 190 0 gusting 5 25.0
2019-Mar-21 23:00 190 23.9
2019-Mar-21 22:30 23.3
2019-Mar-21 22:00 190 23.9
2019-Mar-21 21:30 190 23.9
2019-Mar-21 21:00 190 23.9
2019-Mar-21 20:30 23.9
2019-Mar-21 20:00 23.9
2019-Mar-21 19:30 24.4
2019-Mar-21 19:00 24.4
2019-Mar-21 18:30 25.0
2019-Mar-21 18:00 190 25.0
2019-Mar-21 17:30 190 25.0
2019-Mar-21 17:00 190 25.0
2019-Mar-21 16:30 190 25.0
2019-Mar-21 16:00 190 25.0
2019-Mar-21 15:30 190 0 gusting 4 25.6
2019-Mar-21 15:00 190 0 gusting 3 25.6
2019-Mar-21 14:30 190 0 gusting 4 25.6
2019-Mar-21 14:00 190 0 gusting 4 25.6
2019-Mar-21 13:30 190 0 gusting 6 26.1
2019-Mar-21 13:00 189 1 gusting 6 26.7
2019-Mar-21 12:30 190 1 gusting 6 26.7
2019-Mar-21 12:00 190 26.1
2019-Mar-21 11:30 190 26.1
2019-Mar-21 11:00 190 26.7
2019-Mar-21 10:30 190 27.2
2019-Mar-21 10:00 190 28.3
2019-Mar-21 09:30 190 28.9